Regional Weather Roundup
Issued by NWS Upton, NY

Current Version | Previous Version | Graphics & Text | Print | Product List | Glossary Off
Versions: 1 2 3 4 5 6 7 8 9 10 11 12 13 14 15 16 17 18 19 20 21 22 23 24 25 26 27 28 29 30 31 32 33 34 35 36 37 38 39 40 41 42 43 44 45 46 47 48 49 50

000
ASUS41 KOKX 091904
RWROKX

REGIONAL WEATHER ROUNDUP
NATIONAL WEATHER SERVICE NEW YORK NY
200 PM EST TUE FEB 09 2016

NOTE: "FAIR" INDICATES FEW OR NO CLOUDS BELOW 12,000 FEET WITH NO
SIGNIFICANT WEATHER AND/OR OBSTRUCTIONS TO VISIBILITY.

NYZ071-072-176-178-NJZ106-104-092000-
NEW YORK CITY METRO AREA


CITY           SKY/WX    TMP DP  RH WIND       PRES   REMARKS
CENTRAL PARK   CLOUDY    34  22  61 NE3       29.59F
LAGUARDIA APRT CLOUDY    33  23  66 NE5       29.57F WCI  29
KENNEDY INTL   PTSUNNY   33  24  69 CALM      29.59F
NEWARK/LIBERTY CLOUDY    33  25  72 NE3       29.58F
BRNX BOT. GARD   N/A     32  23  69 SW3       29.58S
TETERBORO      CLOUDY    34  20  56 CALM      29.57F
$$

NYZ177-179-078>081-092000-
LONG ISLAND NEW YORK

CITY           SKY/WX    TMP DP  RH WIND       PRES   REMARKS
FARMINGDALE    CLOUDY    32  23  69 N8        29.57F WCI  25
ISLIP          CLOUDY    32  24  72 N5        29.56F WCI  27
SHIRLEY        PTSUNNY   32  24  72 NW5       29.57F WCI  27
RIVERHEAD        N/A     36  23  60 E6        29.55F WCI  31
WESTHAMPTON    CLOUDY    31  24  75 N8        29.58F WCI  23
EAST HAMPTON   PTSUNNY   28  27  93 N7        29.55F WCI  21
MONTAUK POINT    N/A     32  26  78 N6        29.57F WCI  26
$$

NYZ052-065-067-092000-
HUDSON VALLEY

CITY           SKY/WX    TMP DP  RH WIND       PRES   REMARKS
WHITE PLAINS   PTSUNNY   30  21  69 SE5       29.55F WCI  25
NEWBURGH       MOSUNNY   32  23  69 VRB5      29.55F WCI  27
MONTGOMERY     SUNNY     33  22  63 VRB3      29.54F
POUGHKEEPSIE   MOSUNNY   32  20  61 W3        29.56F
ALBANY         CLOUDY    29  19  66 CALM      29.56F
$$

NJZ001-105-106-008-010-013-015-019>022-104-092000-
NEW JERSEY

CITY           SKY/WX    TMP DP  RH WIND       PRES   REMARKS
NEWARK/LIBERTY CLOUDY    33  25  72 NE3       29.58F
TETERBORO      CLOUDY    34  20  56 CALM      29.57F
CALDWELL       CLOUDY    32  23  69 SE5       29.58S WCI  27
MORRISTOWN     CLOUDY    32  27  80 CALM      29.58F
SOMERVILLE     CLOUDY    33  25  72 E3        29.56F
SUSSEX         CLOUDY    31  23  72 S3        29.54F
ANDOVER          N/A     32  23  69 CALM      29.54F
TRENTON        CLOUDY    33  27  78 NE6       29.55F WCI  28
MILLVILLE      LGT RAIN  38  35  89 E5        29.53S WCI  34
ATLANTIC CITY  CLOUDY    38  30  73 NE12      29.54S WCI  30
WRIGHTSTOWN    CLOUDY    34  34  99 NE8       29.53F WCI  27
TOMS RIVER     CLOUDY    34  27  75 NE8       29.56F WCI  27
BELMAR         CLOUDY    32  21  64 N6        29.56F WCI  26
$$

PAZ047>061-062-071-092000-
EASTERN PENNSYLVANIA

CITY           SKY/WX    TMP DP  RH WIND       PRES   REMARKS
PHILADELPHIA   LGT SNOW  37  29  72 NE8       29.56S WCI  31
ALLENTOWN      CLOUDY    34  26  72 E5        29.54F WCI  30
SCRANTON       CLOUDY    34  26  72 CALM      29.49F
$$

CTZ002-004>006-009-010-012-RIZ004-006-007-MAZ004-011-015-092000-
SOUTHERN NEW ENGLAND
 IN CT

CITY           SKY/WX    TMP DP  RH WIND       PRES   REMARKS
BRADLEY INTL   MOSUNNY   29  19  66 N6        29.57F WCI  23
HARTFORD       FLURRIES  30  19  63 N5        29.59F WCI  25
DANBURY        PTSUNNY   32  19  58 CALM      29.56F
WTRBRY/OXFORD  NOT AVBL
BRIDGEPORT     MOSUNNY   30  22  72 SE8       29.58F WCI  22
MERIDEN        PTSUNNY   30  19  63 NW6       29.58F WCI  24
NEW HAVEN      PTSUNNY   32  21  64 SE3       29.58F
CHESTER        FAIR      32  23  69 NE5       29.56S WCI  27
GROTON         CLOUDY    33  24  69 N6        29.57F WCI  28
WILLIMANTIC    CLOUDY    32  20  61 CALM      29.58F

 IN RI

CITY           SKY/WX    TMP DP  RH WIND       PRES   REMARKS
PROVIDENCE     CLOUDY    29  20  69 N10       29.58F WCI  20
BLOCK ISLAND   CLOUDY    30  27  86 NE10      29.55F WCI  21
WESTERLY       CLOUDY    32  22  66 N6        29.58F WCI  26

 IN MA

CITY           SKY/WX    TMP DP  RH WIND       PRES   REMARKS
BOSTON         NOT AVBL
WORCESTER      CLOUDY    24  16  71 CALM      29.53F
WESTFIELD      CLOUDY    28  17  63 NE5       29.57F WCI  23
PROVINCETOWN   CLOUDY    32  26  78 N13       29.56F WCI  22
NANTUCKET      CLOUDY    34  27  75 N15       29.53F WCI  24
$$

ANZ330-335-338-340-345-350-353-355-092000-
COASTAL MARINE OBSERVATIONS


STATION/POSITION TIME  SKY/WX   TEMP    WIND        PRES    VSBY  WAVE
                                AIR SEA DIR/SP/G                  HT/PER
                 (UTC)          (F)     (DEG/KT/KT) (MB)    (MI)  (FT/S)
NY HARB ENTRANCE 1750            33 43   30/  8/ 12 1001.3          6/14
4S FIRE IS       NOT AVBL
20S FIRE ISLAND  1750            34 44   50/ 14/ 16 1000.9          6/13
GREAT SOUTH BAY  NOT AVBL
23SW MTP         1750            32 46   10/ 16/ 17 1000.6          7/11
HUDSON CANYON    1750            39 49               999.1          8/12
KINGS POINT      1800            31 38  160/  4/  7 1001.5
EXECUTION ROCKS  NOT AVBL
CENTRAL LI SOUND 1800            30      40/  4/  6   N/A           0
EASTERN LI SOUND 1800            31 42   20/  6/ 12   N/A
ROBBINS REEF     1800            31     350/  6/  7 1001.0
$$


>>>>>>>>>>>>>>>>>>>>>>>>>>>> KEY <<<<<<<<<<<<<<<<<<<<<<<<<<<
>                                                          <
>     SKY/WX - SKY CONDITION/PRESENT WEATHER               <
>     TMP    - TEMPERATURE IN FAHRENHEIT                   <
>     DP     - DEWPOINT IN FAHRENHEIT                      <
>     RH     - RELATIVE HUMIDITY IN PERCENT                <
>     WIND   - DIRECTION AND SPEED IN MPH                  <
>     PRES   - MEAN SEA LEVEL PRESSURE IN INCHES OF HG     <
>     WCI    - WIND CHILL INDEX                            <
>     VSB    - VISIBILITY IN MILES                         <
>     HX     - HEAT INDEX                                  <
>     TC     - TEMPERATURE IN CELSIUS                      <
>     VRB    - VARIABLE WIND DIRECTION                     <
>                                                          <
>>>>>>>>>>>>>>>>>>>>>>>>>>>> KEY <<<<<<<<<<<<<<<<<<<<<<<<<<<






USA.gov is the U.S. government's official web portal to all federal, state and local government web resources and services.